Tracking 35237 objects as of 5-Sep-2026
HD Live streaming from Space Station
objects crossing your sky now

STARLINK-3963

Track STARLINK-3963 now!
10-day predictions
STARLINK-3963 is classified as:


NORAD ID: 52643
Int'l Code: 2022-052AX
Launch date: May 14, 2022
Source: United States (US)
Launch site: AIR FORCE EASTERN TEST RANGE (AFETR)
Your satellite tracking list
Your tracking list is empty




NASA's NSSDC Master Catalog

Two Line Element Set (TLE):
1 52643U 22052AX  26248.16343954 -.00000361  00000-0  12532-6 0  9998
2 52643  53.1588 162.3786 0001294  82.8252 277.2896 15.31697960238379
Source of the keplerian elements: AFSPC